[[{"header":{"parameterUnit":"m.s-1","parameterCategory":1,"la1":30.2991,"la2":30.254,"lo1":-89.0895,"lo2":-89.0444,"dy":0.0017,"dx":0.0017,"nx":28,"ny":28,"refTime":"2023-07-28T21:00:00:Z","depth":0,"parameterNumber":2,"parameterNumberName":"U-component_of_WINDS"},"data":[0,0,0,0,0,0,0,0,0,0,0,0,0,0,0,0,0,0,0,0,0,0,0,0,0,0,0,0,0,0,0,0,0,0,0,0,0,0,0,0,0,0,0,0,0,0,0,0,0,0,0,0,0,0,0,0,0,0,0.665,0.6652,0,0.6856,0.6858,0.6861,0.6948,0.6948,0.6947,0.6947,0.7161,0.7167,0.7173,0,0,0,0,0,0,0,0,0,0,0,0,0,0.6333,0.6339,0.665,0.6653,0.6655,0.6856,0.6859,0.6861,0.6948,0.6948,0.6947,0.6947,0.7159,0.7166,0.7173,0,0,0,0,0,0,0,0,0,0,0,0,0,0.6498,0.634,0.665,0.6723,0.6731,0.6855,0.6859,0.6862,0.6948,0.6948,0.6947,0.6947,0.7157,0.7166,0.7174,0.7242,0,0,0.7202,0.7206,0,0,0,0,0,0,0,0,0.6489,0.651,0.6709,0.6718,0.6728,0.6876,0.6825,0.699,0.6949,0.6866,0.6947,0.6946,0.7067,0.7083,0.7123,0.7252,0.7261,0.7203,0.7209,0.7212,0.7215,0,0,0,0,0,0,0,0.6477,0.6501,0.6732,0.6712,0.6723,0.6746,0.6768,0.6857,0.6967,0.6873,0.688,0.6903,0.7072,0.7114,0.7129,0.7264,0.7203,0.7211,0.7216,0.722,0.7457,0.7458,0,0,0,0,0,0,0.6454,0.6491,0.6725,0.6738,0.6604,0.6752,0.6777,0.6829,0.6967,0.6987,0.6903,0.6906,0.7099,0.7118,0.7137,0.7224,0.7212,0.7221,0.7226,0.7457,0.7458,0.7459,0,0,0,0,0,0,0.6446,0.6474,0.6717,0.6617,0.6649,0.6758,0.6815,0.6833,0.6876,0.6989,0.701,0.6926,0.7099,0.7124,0.7215,0.7233,0.7225,0.7233,0.7456,0.7457,0.7458,0.74,0,0,0,0,0,0,0.6437,0.647,0.6497,0.6616,0.6654,0.6791,0.6816,0.6838,0.6891,0.6897,0.7016,0.7036,0.7101,0.7201,0.7224,0.7245,0.724,0.7455,0.7456,0.7458,0.7401,0.7399,0.7397,0,0,0,0,0,0.6425,0.6473,0.6498,0.6526,0.669,0.6792,0.6813,0.6887,0.6892,0.692,0.6992,0.7032,0.7227,0.7209,0.7236,0.726,0.7454,0.7456,0.7458,0.7401,0.7399,0.7398,0,0,0,0,0,0,0.6355,0.649,0.6519,0.6607,0.6687,0.6806,0.6844,0.6882,0.6963,0.6965,0.7054,0.708,0.7163,0.7221,0.7199,0.7332,0.7344,0.7351,0.7292,0.7291,0.7289,0.7274,0.7248,0,0,0,0,0,0.6349,0.642,0.6535,0.6602,0.664,0.6734,0.6782,0.6831,0.6918,0.6952,0.7031,0.7115,0.7195,0.7246,0.7326,0.7409,0.7436,0.7439,0.7437,0.7435,0.7441,0.7489,0.7491,0.7465,0.7465,0.7465,0,0,0.6339,0.6422,0.6462,0.6589,0.6657,0.6729,0.6762,0.6837,0.6891,0.6964,0.7054,0.7115,0.7213,0.73,0.7342,0.7351,0.7454,0.7438,0.7436,0.7443,0.7491,0.7493,0.7495,0.7466,0.7466,0.7466,0,0,0.6357,0.6427,0.6489,0.6556,0.6657,0.6719,0.6734,0.6847,0.689,0.6981,0.7036,0.7102,0.7238,0.7306,0.7358,0.7399,0.7438,0.7423,0.7415,0.746,0.7462,0.7465,0.7479,0.7483,0.7428,0.7428,0.7428,0,0.6332,0.6442,0.6517,0.6588,0.6643,0.671,0.6774,0.6835,0.6957,0.6993,0.7001,0.7172,0.7243,0.7346,0.7356,0.7396,0.7416,0.741,0.7456,0.7459,0.7462,0.7477,0.7482,0.7425,0.7425,0.7426,0.7426,0,0.6405,0.648,0.6519,0.6634,0.6693,0.676,0.6845,0.6896,0.6939,0.7,0.7092,0.7179,0.7277,0.7305,0.7349,0.7414,0.7416,0.7438,0.7452,0.7461,0.7476,0.7482,0.7421,0.7422,0.7423,0.7424,0,0,0.6387,0.6541,0.6554,0.6606,0.6722,0.6782,0.6851,0.6946,0.6987,0.7069,0.713,0.7242,0.7263,0.7322,0.7374,0.7413,0.7439,0.7431,0.7434,0.7429,0.7516,0.7498,0.7504,0.7465,0.7466,0.7467,0.7507,0,0.6421,0.6548,0.6617,0.6715,0.6785,0.6849,0.691,0.6987,0.7045,0.7113,0.7179,0.7257,0.7278,0.7314,0.7356,0.7427,0.7458,0.7425,0.7523,0.7526,0.7497,0.7512,0.7495,0.7528,0.7514,0.7515,0.7516,0,0.6478,0.6557,0.6662,0.6768,0.68,0.6853,0.6945,0.7009,0.7098,0.7137,0.7202,0.7252,0.7328,0.7334,0.744,0.7416,0.746,0.7501,0.7504,0.7517,0.7522,0.7525,0.7541,0.7546,0.7526,0.7525,0.7524,0,0.6453,0.6586,0.6666,0.6709,0.6835,0.687,0.6924,0.7013,0.7065,0.7145,0.7179,0.7267,0.7316,0.7383,0.7456,0.7453,0.7554,0.7567,0.759,0.7588,0.7609,0.7607,0.7632,0.7636,0.7636,0.7636,0.7636,0,0.6484,0.6546,0.6656,0.6705,0.6776,0.6854,0.6922,0.6981,0.7059,0.7121,0.7181,0.7238,0.733,0.7399,0.7456,0.7535,0.7556,0.7591,0.7606,0.7586,0.7582,0.7617,0.7617,0.7637,0.7637,0.7637,0.7637,0,0.647,0.6546,0.6637,0.6748,0.6777,0.6824,0.6919,0.6969,0.703,0.7107,0.713,0.7225,0.7309,0.7387,0.7499,0.7538,0.7617,0.7636,0.7587,0.7595,0.7614,0.7611,0.7663,0.7674,0.7669,0.7669,0.7669,0,0.6485,0.6533,0.6649,0.6694,0.6746,0.6818,0.6871,0.6949,0.7002,0.7105,0.7143,0.723,0.7304,0.7434,0.7514,0.76,0.7622,0.7634,0.7635,0.7613,0.7622,0.7618,0.7624,0.7632,0.7632,0.7632,0.7632,0,0.6503,0.6538,0.6611,0.6697,0.6758,0.683,0.6904,0.6938,0.703,0.7086,0.7171,0.7228,0.7341,0.7427,0.7521,0.7578,0.762,0.763,0.764,0.7621,0.759,0.7607,0.7582,0.7629,0.7629,0.763,0.763,0.763,0.6504,0.655,0.6638,0.6717,0.6781,0.6848,0.69,0.6966,0.7038,0.7135,0.7177,0.7263,0.735,0.748,0.7536,0.7604,0.7614,0.7629,0.7632,0.7635,0.7631,0.7578,0.7622,0.7622,0.7622,0.7622,0.7622,0,0.6526,0.6585,0.6657,0.6758,0.682,0.6852,0.6936,0.6986,0.706,0.7137,0.7208,0.7305,0.7388,0.7473,0.7561,0.7599,0.7621,0.762,0.7618,0.7631,0.7617,0.76,0.7601,0.7601,0.7601,0.7601,0.7601,0.7601,0.6545,0.6624,0.6668,0.6779,0.6838,0.6922,0.6966,0.7029,0.709,0.7195,0.7264,0.7318,0.7399,0.7492,0.757,0.7593,0.7623,0.7616,0.7645,0.7631,0.7632,0.7633,0.7617,0.7622,0.7622,0.7653,0.7653,0.7653]},{"header":{"parameterUnit":"m.s-1","parameterCategory":1,"la1":30.2991,"la2":30.254,"lo1":-89.0895,"lo2":-89.0444,"dy":0.0017,"dx":0.0017,"nx":28,"ny":28,"refTime":"2023-07-28T21:00:00:Z","depth":0,"parameterNumber":3,"parameterNumberName":"V-component_of_WINDS"},"data":[0,0,0,0,0,0,0,0,0,0,0,0,0,0,0,0,0,0,0,0,0,0,0,0,0,0,0,0,0,0,0,0,0,0,0,0,0,0,0,0,0,0,0,0,0,0,0,0,0,0,0,0,0,0,0,0,0,0,3.0234,3.0233,0,3.0183,3.0182,3.0182,3.02,3.0201,3.0202,3.0203,3.0144,3.0142,3.0139,0,0,0,0,0,0,0,0,0,0,0,0,0,3.034,3.0338,3.0234,3.0233,3.0232,3.0183,3.0182,3.0182,3.02,3.0201,3.0202,3.0204,3.0145,3.0142,3.0139,0,0,0,0,0,0,0,0,0,0,0,0,0,3.0292,3.0337,3.0234,3.0236,3.0235,3.0183,3.0182,3.0181,3.0199,3.0201,3.0203,3.0204,3.0146,3.0143,3.0139,3.0079,0,0,3.0127,3.0125,0,0,0,0,0,0,0,0,3.0294,3.0288,3.0236,3.0235,3.0235,3.02,3.0198,3.0147,3.0199,3.0213,3.0203,3.0205,3.0161,3.0156,3.0142,3.0077,3.0074,3.0126,3.0124,3.0122,3.0121,0,0,0,0,0,0,0,3.0298,3.029,3.0213,3.0235,3.0235,3.0237,3.0232,3.0189,3.0177,3.0212,3.0213,3.0207,3.0161,3.0146,3.0141,3.0073,3.0126,3.0123,3.012,3.0119,2.9955,2.9953,0,0,0,0,0,0,3.0302,3.0293,3.0215,3.0212,3.027,3.0234,3.0228,3.0209,3.0178,3.0175,3.0206,3.0208,3.0152,3.0146,3.0139,3.0067,3.0122,3.0118,3.0116,2.9957,2.9955,2.9953,0,0,0,0,0,0,3.0304,3.0295,3.0217,3.0253,3.0243,3.023,3.0208,3.0207,3.0192,3.0174,3.0171,3.0193,3.0153,3.0145,3.0094,3.0065,3.0117,3.0113,2.9959,2.9956,2.9954,2.9922,0,0,0,0,0,0,3.0307,3.0296,3.0275,3.0252,3.0241,3.0175,3.0207,3.0205,3.0186,3.0189,3.0161,3.0158,3.0154,3.01,3.009,3.0061,3.011,2.9962,2.9958,2.9955,2.9926,2.9919,2.9913,0,0,0,0,0,3.0311,3.0267,3.0274,3.0264,3.0215,3.0173,3.0167,3.0165,3.0184,3.0161,3.0149,3.0159,3.007,3.0095,3.0084,3.0052,2.9964,2.9959,2.9955,2.9929,2.992,2.9913,0,0,0,0,0,0,3.0284,3.0264,3.0271,3.0218,3.0198,3.0177,3.0148,3.0156,3.0127,3.0131,3.0128,3.0121,3.0069,3.0056,3.0084,2.9993,3.0019,3.0013,3.0003,2.9995,2.9988,2.9992,3.0107,0,0,0,0,0,3.0272,3.0242,3.0226,3.018,3.017,3.0161,3.0143,3.0144,3.0121,3.0111,3.0096,3.0071,3.0038,3.0016,2.9984,2.9925,2.9918,2.9897,2.9891,2.9885,2.9879,2.9845,2.9835,2.9938,2.9938,2.9938,0,0,3.0246,3.0232,3.0213,3.0175,3.0159,3.0126,3.0153,3.0117,3.0092,3.0105,3.0057,3.0045,3.0017,2.9962,2.9936,2.9949,2.9849,2.988,2.9876,2.9872,2.9839,2.983,2.9821,2.9935,2.9936,2.9936,0,0,3.0183,3.017,3.0131,3.0115,3.0091,3.0085,3.0076,3.0054,3.0046,2.9999,3.0008,2.9977,2.992,2.99,2.9882,2.9811,2.9818,2.9801,2.9765,2.9732,2.9724,2.9717,2.969,2.9681,2.9795,2.9795,2.9795,0,3.0153,3.0107,3.0109,3.0072,3.0054,3.0068,3.0026,3.001,2.9976,2.9962,2.9978,2.9906,2.9889,2.9828,2.9811,2.9797,2.9784,2.9803,2.9725,2.9718,2.9711,2.9686,2.9676,2.9793,2.9793,2.9793,2.9793,0,3.0071,3.0038,3.0009,2.9978,2.9957,2.9918,2.9913,2.9891,2.9893,2.9885,2.9835,2.9815,2.9779,2.9765,2.9767,2.9704,2.9713,2.9727,2.9753,2.9699,2.9675,2.9666,2.979,2.9791,2.9791,2.9792,0,0,2.9987,2.9959,2.9948,2.9934,2.9909,2.9883,2.9844,2.9811,2.9792,2.9768,2.9734,2.9686,2.9699,2.9678,2.9678,2.9649,2.9592,2.9666,2.9665,2.9652,2.9521,2.9509,2.9498,2.9598,2.9596,2.9594,2.9522,0,2.992,2.9855,2.9856,2.9794,2.9763,2.9775,2.9741,2.972,2.9712,2.9682,2.9672,2.9638,2.9658,2.9646,2.9618,2.9605,2.9566,2.9611,2.9563,2.9562,2.9568,2.9486,2.9473,2.9406,2.9513,2.9511,2.951,0,2.9834,2.981,2.9745,2.9725,2.9711,2.9681,2.9651,2.9623,2.96,2.9596,2.9574,2.9577,2.9536,2.9565,2.9506,2.9536,2.9517,2.9508,2.9505,2.9499,2.9532,2.9476,2.9385,2.9374,2.9496,2.9497,2.9498,0,2.9777,2.9728,2.9683,2.9671,2.9647,2.9625,2.9613,2.9592,2.9572,2.9545,2.9531,2.9499,2.948,2.9454,2.9448,2.947,2.9389,2.9417,2.9382,2.9382,2.9363,2.9363,2.9266,2.9353,2.9353,2.9353,2.9354,0,2.9702,2.9661,2.9658,2.963,2.9584,2.9585,2.954,2.9529,2.951,2.9479,2.9487,2.9457,2.9452,2.942,2.9415,2.9366,2.9358,2.9351,2.935,2.935,2.935,2.9336,2.934,2.9351,2.9351,2.9352,2.9352,0,2.963,2.9627,2.9578,2.956,2.9554,2.9521,2.9504,2.9476,2.9469,2.9429,2.942,2.9408,2.9371,2.9363,2.9318,2.9315,2.9256,2.926,2.9265,2.9264,2.9229,2.9231,2.9117,2.9101,2.92,2.9199,2.9198,0,2.9582,2.9551,2.953,2.9511,2.9499,2.9467,2.9448,2.9447,2.9426,2.9397,2.9372,2.9336,2.9308,2.9247,2.9233,2.9199,2.9201,2.9163,2.9195,2.9196,2.9198,2.92,2.9196,2.9156,2.9155,2.9154,2.9154,0,2.9495,2.9495,2.9468,2.9439,2.9416,2.9393,2.9371,2.9354,2.935,2.9326,2.9289,2.9267,2.9223,2.9186,2.9152,2.9137,2.9143,2.9144,2.9134,2.9132,2.9135,2.9131,2.9246,2.9146,2.9147,2.9147,2.9148,2.9148,2.9432,2.9406,2.9387,2.9355,2.934,2.9319,2.9292,2.9283,2.9253,2.9218,2.9219,2.9178,2.9155,2.911,2.9093,2.906,2.9071,2.9057,2.9053,2.9049,2.9045,2.9142,2.9054,2.9054,2.9054,2.9054,2.9055,0,2.9345,2.9334,2.9305,2.9276,2.925,2.9262,2.9238,2.9216,2.9181,2.916,2.9132,2.9089,2.9054,2.9038,2.9003,2.8979,2.8981,2.8969,2.897,2.8966,2.9037,2.9049,2.8968,2.8968,2.8968,2.8968,2.8968,2.8969,2.9296,2.9252,2.9249,2.9196,2.9184,2.9146,2.9132,2.9112,2.9095,2.9048,2.902,2.901,2.899,2.8954,2.8921,2.8917,2.8903,2.889,2.8887,2.8953,2.8962,2.897,2.8981,2.8887,2.8887,2.8819,2.8818,2.8818]}]]